Notices

What's New in latest Release from April 7th, 2021:

- Updated Glossary, including Speed of Maximum Gust, and Total Hourly Precipitation

- Updated national and regional climate services offices contacts and prices information

- Addition of station inventory lists for 1981-2010, 1971-2000, and 1961-1990 Normals.

If you haven't already, please take our survey and provide feedback about our website: https://eccc.sondage-survey.ca/f/LanguageSelection.aspx?s=442ca660-fcf1-47c0-95a9-59707d6fd709

Hourly Data Report for April 10, 2021

CORNER BROOK
NEWFOUNDLAND
Current Station Operator: ECCC - MSC

48°56'00.000" N
57°55'00.000" W
151.80 m
8401298
71973
WKB

Download Data

Hourly Data (April 2021)
Hourly Data Report for April 10, 2021
TIME
LST
Temp Definition
°C
Dew Point Definition
°C
Rel Hum Definition
%
Precip. Amount Definition
mm

Wind Dir Definition
10's deg

Wind Spd Definition
km/h
Visibility Definition
km
Stn Press Definition
kPa
Hmdx Definition


Wind Chill Definition


Weather Definition


00:30 1.1 -0.1 92 0.8 30 11   99.41     LegendNANA
01:30 0.8 -0.3 92 0.7 30 6   99.40     LegendNANA
02:30 0.6 -0.4 93 0.8 6 7   99.38     LegendNANA
03:30 0.5 -0.5 93 0.0 29 3   99.36     LegendNANA
04:30 0.4 -0.5 93 0.8 33 6   99.33     LegendNANA
05:30 0.2 -0.7 94 0.0 32 8   99.30     LegendNANA
06:30 0.2 -0.6 94 0.0 32 4   99.30     LegendNANA
07:30 -0.1 -1.0 94 0.0 30 6   99.30   -2 LegendNANA
08:30 0.0 -0.9 93 0.0 33 4   99.27   -1 LegendNANA
09:30 0.5 -1.3 88 0.0 4 12   99.25     LegendNANA
10:30 2.5 -0.6 80 0.0 31 6   99.20     LegendNANA
11:30 1.7 -1.0 82 0.0 30 16   99.15     LegendNANA
12:30 1.3 -1.9 80 0.6 29 18   99.09     LegendNANA
13:30 0.4 -2.7 79 0.0 29 23   99.04     LegendNANA
14:30 0.4 -2.7 80 0.0 29 26   99.01     LegendNANA
15:30 1.6 -2.5 74 0.0 29 26   98.99     LegendNANA
16:30 1.9 -2.5 73 0.0 29 24   98.96     LegendNANA
17:30 1.4 -2.8 74 0.0 29 23   98.96     LegendNANA
18:30 0.9 -2.8 77 0.0 29 18   98.88     LegendNANA
19:30 0.0 -2.9 81 0.0 30 12   98.86   -4 LegendNANA
20:30 0.0 -2.5 84 0.0 31 12   98.83   -4 LegendNANA
21:30 0.1 -2.4 83 0.0 31 16   98.76     LegendNANA
22:30 0.1 -1.8 87 0.0 30 13   98.68     LegendNANA
23:30 0.1 -1.1 91 0.0 30 18   98.56     LegendNANA

Notes on Data Quality.

Legend

  • E = Estimated
  • M = Missing
  • NA = Not Available*
  • [empty] = Indicates an unobserved value
Date modified: